National Weather Service United States Department of Commerce

Observations from across/near northern Michigan

Marine Observations

Michigan Hourly Observations

 

Yesterday's high, low and precipitation reports from across northern Michigan

Northern Michigan Temperatures and Precipitation

 

Observation Text Products


000
SXUS83 KAPX 211926
OMRAPX

Marine Observations
National Weather Service Gaylord MI
326 PM EDT Thu Sep 21 2017

WIND DATA (KTS) WAVES
SITE DATE/TIME DIR SPEED GUST (FT) SITE NAME
--------------------------------------------------

Lake Superior/St Marys River

GRMM4 211840Z 340 5 6 Grand Marais
WFPM4 211840Z 340 4 7 Whitefish Point
PTIM4 211900Z CALM Point Iroquois
KANJ 211855Z CALM Sault Ste Marie
SWPM4 211900Z CALM S.W. Pier
LTRM4 211900Z 210 3 4 Little Rapids
RCKM4 211900Z 290 1 Rock Cut
WNEM4 211900Z 320 2 3 West Nebish Island

Lake Huron

DTLM4 211900Z 10 8 9 DeTour Village
KDRM 211913Z CALM Drummond Island
KMCD 211916Z 80 5 Mackinac Island
MACM4 211900Z 60 3 Mackinac City
KSLH 211914Z 50 7 Cheboygan Airport
CYGM4 211855Z CALM Cheboygan Marina
SRLM4 211900Z 50 8 Spectacle Reef Light
KPZQ 211916Z 30 5 Rogers City
PRIM4 211855Z 120 1 4 Presque Isle Light
KAPN 211854Z 80 7 Alpena Guard Base
APNM4 211910Z 90 3 5 Alpena Harbor Light
TBIM4 211850Z 150 11 12 Thunder Bay Island
45162 211900Z 140 8 14 1.6 Thunder Bay Buoy
SPTM4 211855Z CALM Sturgeon Point Light
KOSC 211914Z 200 8 16 Oscoda
TAWM4 211840Z 190 3 6 Tawas Point
GSLM4 211900Z 200 2 6 Gravelly Shoals
45003 211850Z 140 6 8 2.0 Northern Lake Huron Buoy
45008 211850Z 160 12 14 2.0 Central Lake Huron Buoy
45163 211900Z CALM 0.3 Saginaw Bay Buoy
KP58 211851Z 140 7 Port Hope

Lake Michigan

45175 211920Z 130 2 4 0.3 Mackinac Straits West Buoy
45002 211850Z 80 6 8 1.3 Northern Lake Michigan Buoy
KISQ 211915Z 130 7 Manistique
PNLM4 211900Z 110 5 Port Inland
NABM4 211840Z 200 6 10 Naubinway
KSJX 211915Z 80 3 St James
KPLN 211854Z 40 5 Pellston
KMGN 211915Z 220 4 Harbor Springs
45022 211920Z 320 2 4 0.3 Little Traverse Bay Buoy
KCVX 211914Z 330 4 Charlevoix
GTLM4 211840Z 60 3 4 Grand Traverse Light
KTVC 211853Z 20 8 Traverse City
KFKS 211916Z 260 6 Frankfort
MEEM4 211840Z 240 6 7 Manistee Harbor
BSBM4 211840Z 240 4 7 Big Sable Point
LDTM4 211900Z 210 2 3 Ludington
KLDM 211915Z 240 7 Ludington Airport
45024 211910Z 240 2 6 0.7 Buoy near Ludington


178
ASUS43 KDTX 211910
RWRMI
MICHIGAN HOURLY REGIONAL WEATHER ROUNDUP
NATIONAL WEATHER SERVICE DETROIT/PONTIAC MI
300 PM EDT THU SEP 21 2017

NOTE: "FAIR" INDICATES FEW OR NO CLOUDS BELOW 12,000 FEET WITH NO
SIGNIFICANT WEATHER AND/OR OBSTRUCTION TO VISIBILITY.

MIZ047>049-052>055-059>063-066>070-074>076-081>083-212000-
SOUTHEAST LOWER MICHIGAN

CITY SKY/WX TMP DP RH WIND PRES REMARKS
ADRIAN PTSUNNY 90 68 48 S6 30.06F HX 94
ALMA MOSUNNY 91 64 40 S12 30.03S HX 93
ANN ARBOR MOSUNNY 89 70 53 S3 30.05F HX 94
BAD AXE SUNNY 89 69 52 S10G16 30.04F HX 93
CARO SUNNY 91 69 48 SW9 30.03S HX 95
DETROIT CITY MOSUNNY 88 71 57 S10 30.05F HX 94
DETROIT MOSUNNY 88 74 63 S9 30.06F HX 96
FLINT MOSUNNY 91 67 44 SW10 30.04F HX 94
GROSSE ILE SUNNY 80 71 75 S7 30.06S
HILLSDALE MOSUNNY 90 66 45 S6 30.07F HX 92
HOWELL MOSUNNY 91 66 43 SW6 30.05S HX 94

CITY SKY/WX TMP DP RH WIND PRES REMARKS
JACKSON MOSUNNY 92 66 42 S14 30.05F HX 94
LAMBERTVILLE SUNNY 90 71 52 CALM 30.05F HX 96
LANSING MOSUNNY 93 67 42 SW13 30.04F HX 96
LAPEER FAIR 90 66 44 S8 30.05F HX 93
MASON PTSUNNY 92 66 42 SW7 30.04F HX 95
MONROE SUNNY 87 71 59 SE6 30.05F HX 93
MT. CLEMENS MOSUNNY 84 73 70 SE9 30.05F HX 90
PONTIAC PTSUNNY 89 69 51 MISG 30.05F HX 93
PORT HOPE N/A 77 69 76 SE8 30.03F
PORT HURON SUNNY 88 70 55 S5 30.06F HX 92
TRI CITIES SUNNY 91 72 53 S8 30.03F HX 98
MIDLAND FAIR 92 70 48 SW7 30.02S HX 97
TROY MOSUNNY 89 69 50 SW6 30.07F HX 94
SAGINAW HB SUNNY 90 68 48 CALM 30.02F HX 93
$$
MIZ043>046-050>051-056>058-064>065-071>073-077>080-212000-
SOUTHWEST LOWER MICHIGAN

CITY SKY/WX TMP DP RH WIND PRES REMARKS
BATTLE CREEK MOSUNNY 90 69 50 SW8 30.05F HX 94
BENTON HARBOR SUNNY 84 69 60 W7 30.03F
BIG RAPIDS MOSUNNY 86 67 52 S10G16 30.04S
COLDWATER SUNNY 90 65 44 SW7 30.05F HX 91
FREMONT FAIR 87 69 54 SW6 30.03F HX 91
HOLLAND SUNNY 88 70 55 SW6 30.04F HX 93
GRAND RAPIDS PTSUNNY 93 69 45 NW7 30.02F HX 98
IONIA FAIR 94 67 40 SW5 30.02S HX 97
KALAMAZOO SUNNY 92 68 45 VRB5 30.03F HX 96
LUDINGTON MOSUNNY 76 68 75 SW9 30.02F
MARSHALL MOSUNNY 90 68 48 S6 30.04F HX 93
MOUNT PLEASANT PTSUNNY 90 68 48 W6 30.02F HX 93
MUSKEGON CLOUDY 84 69 60 SW6 30.03F
SOUTH HAVEN SUNNY 85 70 60 NW7 30.04S
$$
MIZ016>042-212000-
NORTHERN LOWER MICHIGAN

CITY SKY/WX TMP DP RH WIND PRES REMARKS
ALPENA CLOUDY 84 73 69 E8 30.02F HX 90
BEAVER ISLAND PTSUNNY 79 68 69 E5 30.02F
BELLAIRE PTSUNNY 84 65 52 N3 30.00F
CADILLAC SUNNY 89 66 46 SW6 30.04F HX 91
CHARLEVOIX SUNNY 76 67 74 N3 30.05F
FRANKFORT MOSUNNY 77 69 75 W8 30.03R
GAYLORD CLOUDY 85 62 46 SW8 30.04F
GRAYLING MOSUNNY 87 68 52 SW5 30.04S HX 90
HARBOR SPRINGS SUNNY 74 68 79 SW5 30.01F
HOUGHTON LAKE SUNNY 86 69 56 S7 30.04F HX 90
MANISTEE MOSUNNY 78 68 71 W12 30.02R
OSCODA SUNNY 87 67 51 S13G18 30.02S HX 90
PELLSTON CLOUDY 82 70 66 NE6 30.02F
ROGERS CITY SUNNY 77 69 75 N5 30.04F
TRAVERSE CITY PTSUNNY 81 68 64 N9 29.99S
$$
MIZ007>008-015-212000-
EASTERN UPPER MICHIGAN

CITY SKY/WX TMP DP RH WIND PRES REMARKS
KINROSS CLOUDY 72 68 87 NE6 30.05S
MACKINAC ISLAN SUNNY 76 68 78 E6 30.03F
NEWBERRY PTSUNNY 74 72 91 N7 30.02F
S. S. MARIE CLOUDY 76 67 73 CALM 30.04S
MUNISING N/A 64 61 90 NE13 30.04F
$$
MIZ004>006-011>014-085-212000-
CENTRAL UPPER MICHIGAN

CITY SKY/WX TMP DP RH WIND PRES REMARKS
MANISTIQUE MOSUNNY 75 69 80 SE7 30.01F
ESCANABA SUNNY 78 67 68 E7 30.00F
MENOMINEE PTSUNNY 72 66 81 CALM 30.02F
SAWYER-GWINN SUNNY 72 59 64 NE6 30.05F
$$
MIZ001>003-009>011-084-212000-
WESTERN UPPER MICHIGAN

CITY SKY/WX TMP DP RH WIND PRES REMARKS
IRON MOUNTAIN MOSUNNY 77 63 61 E7 30.01F
HOUGHTON SUNNY 69 49 48 SE10 30.04F
COPPER HARBOR N/A 64 51 62 VRB5 30.05S
IRONWOOD SUNNY 78 58 49 VRB5 29.98F
$$

ABBREVIATIONS USED IN REMARKS
TC - TEMPERATURE IN CELSIUS
WCI - WIND CHILL INDEX
HX - HEAT INDEX
VSB - VISIBILITY





000
ASUS63 KAPX 211348
RTPAPX


Eastern Upper/Northern Lower Michigan Temperature and Precip Summary
National Weather Service Gaylord MI
948 AM EDT Thu Sep 21 2017

Yesterday`s High Temperature...12 hour Low ending 8 am EDT
24 hour Precipitation/Snowfall ending 8 am EDT
Snow Depth observed at 8 am EDT

.BR APX 0921 ES DH00/TAIRZX/DH07/TAIRZP/PPDRZZ/SFDRZZ/SDIRZZ
:..................................................................
: MAX MIN 24 HR 24 HR SNOW
:ID LOCATION TEMP TEMP PRECIP SNOW DEPTH
:..................................................................
ANJ : Sault Ste Marie : 73 / 66 / 0.32 / 0.0 / 0
APN : Alpena : 76 / 61 / 0.00 / 0.0 / 0
HTL : Houghton Lake : 78 / 65 / 0.00 / 0.0 / 0
PLN : Pellston : 82 / 64 / 0.00 / /
TVC : Traverse City : 84 / 71 / 0.00 / /
GLR : Gaylord : 78 / 64 / 0.01 / /
.END

Cooperative Observations
Temperature/Precipitation/Snowfall values are for 24 hour period
ending at observation time. Snow Depth at obs time.

...................................................................
OBS MAX MIN SNOW SNOW
ID LOCATION TIME TEMP TEMP PCPN FALL DEPTH
...................................................................
ATLM4: Atlanta 1SW :DH0838/ 78 / 61 / T / 0.0 / 0.0
BEUM4: Beulah 7SSW :DH0800/ 84 / 63 / 0.02 / M / M
CADM4: Cadillac :DH0800/ 80 / 63 / 0.00 / M / M
CDLM4: Cadillac 9&10 News :DH0730/ 78 / 63 / 0.00 / 0.0 / 0.0
CHRM4: Charlevoix :DH0800/ 84 / 63 / 0.00 / 0.0 / 0.0
DTVM4: Detour Village :DH0800/ 69 / 63 / 0.91 / 0.0 / 0.0
EJNM4: East Jordan 2NW :DH0830/ 79 / 59 / 0.01 / 0.0 / 0.0
ETWM4: East Tawas :DH0830/ 78 / 61 / 0.00 / 0.0 / 0.0
FLAM4: Fife Lake 2WSW :DH0700/ 79 / 62 / 0.00 / 0.0 / 0.0
GAYM4: Gaylord :DH0800/ 75 / 61 / 0.17 / 0.0 / 0.0
APXM4: Gaylord 9SSW (NWS) :DH0800/ M / M / T / 0.0 / 0.0
GLAM4: Gladwin :DH0700/ 83 / 64 / 0.00 / 0.0 / 0.0
GLNM4: Glennie 2SE :DH0730/ 79 / 59 / 0.00 / 0.0 / 0.0
LUPM4: Lupton 1S :DH0800/ 78 / 60 / 0.00 / 0.0 / 0.0
MYOM4: Mio :DH0830/ 79 / 61 / 0.00 / 0.0 / 0.0
MRAM4: Moran :DH0800/ 74 / 63 / 0.49 / 0.0 / 0.0
PTYM4: Petoskey NCMC :DH0800/ 82 / 62 / 0.02 / 0.0 / 0.0
RGCM4: Rogers City :DH0800/ 72 / 64 / 0.00 / 0.0 / 0.0
SSMM4: Sault Ste Marie :DH0800/ 74 / 63 / 0.28 / M / M
STIM4: St Ignace :DH0700/ 75 / 56 / 0.73 / 0.0 / 0.0
NWFM4: Traverse City 8NNW :DH0800/ 82 / 64 / 0.03 / 0.0 / 0.0
TCMM4: Traverse City Munson :DH0730/ 83 / 62 / 0.00 / 0.0 / 0.0
WBRM4: West Branch 3SE :DH0800/ 79 / 59 / 0.03 / 0.0 / 0.0

These data are preliminary and have not undergone final quality
control by the National Climatic Data Center. Therefore...these
data are subject to revision. Final and certified climate data
can be accessed at www.ncdc.noaa.gov.

&&

The following are supplemental temperature and precipitation data.
This includes data which are received from non-National Weather
Service maintained observing systems...as well as reports from
public weather spotters. Data is only partially quality controlled
and is not suitable for official climatological records.

.BR APX 0921 ES DH00/TAIRZX/DH07/TAIRZP
:
:Automated Temperature Data--Yesterday High/12 hr Low ending 8 am EDT
:..................................................................
: MAX MIN
:ID LOCATION TEMP TEMP
:..................................................................
:
ERY : Newberry : 76 / 64
CIU : Kinross : 74 / 64
MCD : Mackinac Island : 74 / 66
DRM : Drummond Island : 70 / 65
SJX : Beaver Island : 78 / 66
SLH : Cheboygan : 79 / 65
PZQ : Rogers City : 78 / 67
CVX : Charlevoix : 81 / 67
MGN : Harbor Springs : 81 / 67
ACB : Bellaire : 81 / 65
FKS : Frankfort : 85 / 66
GOV : Grayling AAF : 77 / 63
MBL : Manistee : 84 / 65
CAD : Cadillac : 82 / 68
Y31 : West Branch : 77 / 58
OSC : Oscoda : 79 / 62
LDM : Ludington : 84 / 65
RQB : Big Rapids : 82 / 64
MOP : Mount Pleasant : 84 / 66
IKW : Midland : 81 / 66
.END

U.S. Forest Service Remote Automated Weather Stations (RAWS)
Data is only partially quality controlled
Yesterday`s High/12 hour Low Temperature ending 8 am EDT
Maximum Relative Humidity over past 12 hours
12/24 hour Precipitation ending 8 am EDT
...................................................................
MAX MIN MAX 12 HR 24 HR
ID LOCATION TEMP TEMP RH PRECIP PRECIP
...................................................................
AGRM4: Alger RAWS : 78 / 61 / 100 / 0.00 / 0.00
ATAM4: Atlanta RAWS : 80 / 65 / 97 / 0.00 / 0.00
BCYM4: Barton City RAWS : 80 / 62 / 100 / 0.00 / 0.00
GYGM4: Grayling RAWS : 78 / 63 / 98 / 0.00 / 0.00
INDM4: Indian River RAWS : 82 / 64 / 99 / 0.01 / 0.01
MMOM4: Mio RAWS : 78 / 61 / 100 / 0.00 / 0.00
MTNM4: Manton RAWS : M / M / M / M / M
NMIM4: N Manitou Island : 79 / 66 / 94 / 0.00 / 0.00
RACM4: Raco RAWS : 75 / 65 / 99 / 0.18 / 0.18
REXM4: Rexton RAWS : 77 / 66 / 100 / 0.17 / 0.17
RSCM4: Roscommon RAWS : 78 / 63 / M / 0.00 / 0.00
RYDM4: Rudyard RAWS : 76 / 64 / 100 / 0.35 / 0.35
SBDM4: The Bear RAWS : 84 / 67 / 95 / 0.00 / 0.00
SCKM4: Silver Creek RAWS : 80 / 62 / 100 / 0.00 / 0.00
WLLM4: Wellston RAWS : 84 / 66 / 94 / 0.00 / 0.00

The following are precipitation reports received by the National
Weather Service in Gaylord...valid for the time period ending
around 8 am EDT. All reports have been recorded in inches.

Spotter reports from Eastern Upper and Northern Lower Michigan:

WATER TIME SNOW
LOCATION RAIN SNOW EQUIV PERIOD DEPTH
Au Gres 6N 0.0124 Hrs



CoCoRaHS Precipitation Reports
Values are for the previous 24 hours ending around 8 am EDT.
All reports have been recorded in inches.

SNOW SNOW WATER
STATION LOCATION PCPN FALL DEPTH EQUIV
MIMC04 : ST. IGNACE 0.5SE * : 0.73 / MM / MM / MM
MIMC03 : CEDARVILLE 3.2 ESE * : 0.61 / MM / MM / MM
MIOT04 : GAYLORD 1.7 WNW * : 0.17 / 0.0 / 0.0 / MM
MIAP01 : ALPENA 1.6 SSW * : 0.02 / MM / MM / MM
MIAT05 : ELLSWORTH 2.7 W * : 0.02 / MM / MM / MM
MICX07 : EAST JORDAN 2.1 NNW * : 0.01 / 0.0 / 0.0 / 0.00
MIBZ01 : BENZONIA 5.3 S * : 0.01 / MM / MM / MM
MIEM05 : HARBOR SPRINGS 0.7 ENE * : 0.01 / MM / MM / MM
MICX04 : CHARLEVOIX 4.3 SSE * : T / MM / MM / MM
MIPI01 : ROGERS CITY 0.2 WSW * : T / MM / MM / MM
MIIC03 : EAST TAWAS 0.8 WSW * : 0.00 / 0.0 / 0.0 / 0.00
MIMN06 : WELLSTON 3.9 WNW * : 0.00 / 0.0 / 0.0 / 0.00
MIAP02 : OSSINEKE 1.0 NNE * : 0.00 / 0.0 / MM / MM
MIAR02 : ALGER 2.4 ENE * : 0.00 / 0.0 / MM / MM
MICF09 : GRAYLING 15.8 NE * : 0.00 / 0.0 / MM / MM
MIGT16 : TRAVERSE CITY 0.9 NNE * : 0.00 / 0.0 / MM / MM
MIGT21 : KINGSLEY 2.7 ENE * : 0.00 / MM / MM / MM
MILL01 : NORTHPORT 5.0 SSW * : 0.00 / MM / MM / MM
MILL03 : NORTHPORT 0.1 SW * : 0.00 / 0.0 / MM / MM
MIMK01 : LAKE CITY 5.0 SSW * : 0.00 / 0.0 / MM / MM
MIOD03 : LUZERNE 2.4 NE * : 0.00 / 0.0 / MM / MM

$$